Upington, South Africa

10:49 AM SAST on July 25, 2017 (GMT +0200)
Upington

Weather History for FAUP - March, 2013

Change the Weather History Date:

Sunday, March 3, 2013

  Actual Average Record
Temperature  
Mean Temperature 84 °F -  
Max Temperature 101 °F 88 °F 102 °F (1999)
Min Temperature 66 °F 61 °F 53 °F (2006)
Cooling Degree Days 18    
Growing Degree Days 34 (Base 50)    
Moisture  
Dew Point 41 °F    
Average Humidity 21    
Maximum Humidity 33    
Minimum Humidity 6    
Precipitation  
Precipitation 0.00 in 0.04 in - ()
Sea Level Pressure  
Sea Level Pressure 30.07 in    
Wind  
Wind Speed 5 mph ()    
Max Wind Speed 18 mph    
Max Gust Speed -    
Visibility 6.2 miles    
Events      
Averages and records for this station are not official NWS values.
T = Trace of Precipitation, MM = Missing Value Source: Averaged Metar Reports

Daily Weather History Graph

Daily Weather History Graph

Search for Another Location

Airport or City:

Trip Planner

Search our weather history database for the weather conditions in past years. The results will help you decide how hot, cold, wet, or windy it might be!

Date:

Astronomy

Mar. 03, 2013 Rise Set
Actual Time 6:28 AM SAST 7:04 PM SAST
Civil Twilight 6:04 AM SAST 7:28 PM SAST
Nautical Twilight 5:36 AM SAST 7:56 PM SAST
Astronomical Twilight 5:08 AM SAST 8:24 PM SAST
Moon 10:56 PM SAST (3/3) 11:54 AM SAST (3/3)
Length of Visible Light 13h 24m
Length of Day
12h 36m
Waning Gibbous, 67% of the Moon is Illuminated
Mar 3
Waning Gibbous
Mar 4
Last Quarter
Mar 11
New
Mar 19
First Quarter
Mar 27
Full

Hourly Weather History & Observations

Time (SAST) Temp. Dew Point Humidity Pressure Visibility Wind Dir Wind Speed Gust Speed Precip Events Conditions
12:00 AM 73.4 °F 37.4 °F 27% 30.04 in - SSW 3.5 mph - N/A   Unknown
1:00 AM 71.6 °F 39.2 °F 31% 30.06 in - SSW 3.5 mph - N/A   Clear
2:00 AM 71 °F 36 °F 18%  in 25 mi WSW 3.5 mph - -  
2:00 AM 69.8 °F 35.6 °F 28% 30.04 in - WSW 2.3 mph - N/A   Clear
3:00 AM 69.8 °F 33.8 °F 27% 30.04 in - Calm Calm - N/A   Clear
4:00 AM 69.8 °F 35.6 °F 28% 30.04 in - Calm Calm - N/A   Clear
5:00 AM 68 °F 35 °F 19%  in 25 mi North 4.6 mph - -  
5:00 AM 66.2 °F 33.8 °F 30% 30.06 in - North 3.5 mph - N/A   Clear
6:00 AM 68.0 °F 37.4 °F 33% 30.06 in - NNE 6.9 mph - N/A   Clear
7:00 AM 69.8 °F 39.2 °F 33% 30.09 in - North 5.8 mph - N/A   Clear
7:16 AM 73.4 °F 41.0 °F 31% 30.09 in - NNE 5.8 mph - N/A   Clear
7:46 AM 78.8 °F 44.6 °F 30% 30.12 in - NNE 3.5 mph - N/A   Clear
8:00 AM 81 °F 47 °F 20%  in 25 mi NNE 8.1 mph - -  
8:00 AM 80.6 °F 46.4 °F 30% 30.12 in - NNE 8.1 mph - N/A   Clear
9:00 AM 84.2 °F 48.2 °F 29% 30.12 in - North 18.4 mph - N/A   Clear
10:00 AM 87.8 °F 50.0 °F 27% 30.12 in - North 17.3 mph - N/A   Clear
10:39 AM 91.4 °F 48.2 °F 23% 30.12 in - North 15.0 mph - N/A   Clear
11:00 AM 93 °F 49 °F 14%  in 25 mi North 13.8 mph - -  
11:00 AM 91.4 °F 48.2 °F 23% 30.12 in - North 12.7 mph - N/A   Clear
12:00 PM 95.0 °F 46.4 °F 19% 30.09 in - North 10.4 mph - N/A   Clear
1:00 PM 96.8 °F 41.0 °F 15% 30.09 in 6.2 mi North 9.2 mph - N/A   Partly Cloudy
2:00 PM 98 °F 40 °F 7%  in 25 mi NNE 6.9 mph - -   Scattered Clouds
3:00 PM 96.8 °F 39.2 °F 14% 30.04 in 6.2 mi NNE 6.9 mph - N/A   Partly Cloudy
4:00 PM 98.6 °F 37.4 °F 12% 30.04 in 6.2 mi WNW 4.6 mph - N/A   Partly Cloudy
5:00 PM 100 °F 39 °F 6%  in 25 mi NE 5.8 mph - -   Scattered Clouds
5:00 PM 98.6 °F 37.4 °F 12% 30.01 in 6.2 mi NE 4.6 mph - N/A   Partly Cloudy
6:00 PM 96.8 °F 39.2 °F 14% 30.01 in 6.2 mi NNE 3.5 mph - N/A   Partly Cloudy
7:00 PM 95.0 °F 39.2 °F 14% 30.01 in 6.2 mi ESE 4.6 mph - N/A   Partly Cloudy
8:00 PM 90 °F 40 °F 10%  in 25 mi East 3.5 mph - -   Scattered Clouds
8:00 PM 89.6 °F 39.2 °F 17% 30.04 in 6.2 mi East 2.3 mph - N/A   Partly Cloudy
9:00 PM 87.8 °F 37.4 °F 17% 30.04 in - East 1.2 mph - N/A   Unknown
10:00 PM 84.2 °F 39.2 °F 20% 30.06 in - NNE 4.6 mph - N/A   Unknown
11:00 PM 81 °F 41 °F 15%  in - North 6.9 mph - -  
11:00 PM 80.6 °F 41.0 °F 24% 30.06 in - North 5.8 mph - N/A   Unknown